Hourly Data Report for September 20, 2017

All times are specified in Local Standard Time (LST). Add 1 hour to adjust for Daylight Saving Time where and when it is observed.

SUMMERSIDE
PRINCE EDWARD ISLAND

46°26'28.000" N
63°50'17.000" W
12.20 m
8300596
71702
WSD

Download Data

Hourly Data (September 2017)
Hourly Data Report for September 20, 2017
Temp Definition
°C
Dew Point Temp Definition
°C
Rel Hum Definition
%
Wind Dir Definition
10's deg

Wind Spd Definition
km/h
Visibility Definition
km
Stn Press Definition
kPa
Hmdx Definition


Wind Chill Definition


Weather Definition


TIME
00:00 19.4 18.5 94 18 21   101.88     LegendNANA
01:00 19.4 18.5 95 17 18   101.86     LegendNANA
02:00 19.6 18.7 95 17 16   101.82     LegendNANA
03:00 19.5 18.7 95 18 12   101.80     LegendNANA
04:00 19.4 18.6 95 17 9   101.75     LegendNANA
05:00 19.6 18.7 95 17 16   101.72     LegendNANA
06:00 19.5 18.6 94 17 14   101.71     LegendNANA
07:00 19.7 18.7 94 17 14   101.73     LegendNANA
08:00 20.1 18.9 93 17 11   101.71 27   LegendNANA
09:00 20.8 19.0 90 19 7   101.69 28   LegendNANA
10:00 22.0 19.2 84 19 11   101.65 29   LegendNANA
11:00 22.3 19.1 82 24 8   101.61 29   LegendNANA
12:00 22.2 18.3 78 26 8   101.56 28   LegendNANA
13:00 23.2 18.7 76 23 7   101.49 30   LegendNANA
14:00 23.0 18.9 78 31 7   101.43 30   LegendNANA
15:00 22.6 19.8 84 35 13   101.40 30   LegendNANA
16:00 20.0 18.5 91 2 21   101.42 26   LegendNANA
17:00 17.9 16.9 94 3 22   101.46     LegendNANA
18:00 17.1 16.1 94 3 17   101.49     LegendNANA
19:00 16.6 15.7 95 4 20   101.48     LegendNANA
20:00 16.1 15.5 96 4 20   101.50     LegendNANA
21:00 16.2 15.0 92 4 18   101.55     LegendNANA
22:00 16.1 14.4 90 4 18   101.59     LegendNANA
23:00 15.3 14.1 93 2 12   101.64     LegendNANA

Notes on Data Quality.

Legend

  • E = Estimated
  • M = Missing
  • NA = Not Available
  • ‡ = Partner data that is not subject to review by the National Climate Archives
Date modified: